Time,TemperatureF,DewpointF,PressureIn,WindDirection,WindDirectionDegrees,WindSpeedMPH,WindSpeedGustMPH,Humidity,HourlyPrecipIn,Conditions,Clouds,dailyrainin,SoftwareType,DateUTC
2013-01-01 00:03:00,40.0,-99.9,30.00,SSE,151,4.0,7.0,-999,-99.99,,,-99.99,,2013-01-01 05:03:00,
2013-01-01 00:12:00,40.0,-99.9,30.00,SE,137,3.0,4.0,-999,-99.99,,,-99.99,,2013-01-01 05:12:00,
2013-01-01 00:22:00,40.0,-99.9,29.99,ESE,115,3.0,4.0,-999,-99.99,,,-99.99,,2013-01-01 05:22:00,
2013-01-01 00:33:00,40.0,-99.9,29.99,SE,135,3.0,5.0,-999,-99.99,,,-99.99,,2013-01-01 05:33:00,
2013-01-01 00:42:00,-999.0,-99.9,29.99,SE,132,4.0,6.0,-999,-99.99,,,-99.99,,2013-01-01 05:42:00,
2013-01-01 00:53:00,40.0,-99.9,29.99,North,-999,-999.0,-999.0,-999,-99.99,,,-99.99,,2013-01-01 05:53:00,
2013-01-01 01:02:00,40.0,-99.9,29.99,South,170,5.0,6.0,-999,-99.99,,,-99.99,,2013-01-01 06:02:00,
2013-01-01 01:12:00,40.0,-99.9,29.99,North,-999,-999.0,-999.0,-999,-99.99,,,-99.99,,2013-01-01 06:12:00,
2013-01-01 01:22:00,-999.0,-99.9,29.99,South,179,5.0,6.0,-999,-99.99,,,-99.99,,2013-01-01 06:22:00,
2013-01-01 01:33:00,40.0,-99.9,29.99,SSE,167,3.0,6.0,-999,-99.99,,,-99.99,,2013-01-01 06:33:00,
2013-01-01 01:43:00,-999.0,-99.9,29.99,SSE,168,3.0,4.0,-999,-99.99,,,-99.99,,2013-01-01 06:43:00,
2013-01-01 01:52:00,-999.0,-99.9,29.99,SSE,160,5.0,5.0,-999,-99.99,,,-99.99,,2013-01-01 06:52:00,
2013-01-01 02:02:00,40.0,-99.9,29.98,SE,142,4.0,6.0,-999,-99.99,,,-99.99,,2013-01-01 07:02:00,
2013-01-01 02:12:00,40.0,-99.9,29.99,SE,144,4.0,5.0,-999,-99.99,,,-99.99,,2013-01-01 07:12:00,
2013-01-01 02:22:00,40.0,-99.9,29.99,North,-999,-999.0,-999.0,-999,-99.99,,,-99.99,,2013-01-01 07:22:00,
2013-01-01 02:32:00,40.0,-99.9,29.99,SE,130,3.0,4.0,-999,-99.99,,,-99.99,,2013-01-01 07:32:00,
2013-01-01 02:43:00,-999.0,-99.9,29.99,SE,131,4.0,5.0,-999,-99.99,,,-99.99,,2013-01-01 07:43:00,
2013-01-01 02:53:00,41.0,-99.9,30.00,North,-999,-999.0,-999.0,-999,-99.99,,,-99.99,,2013-01-01 07:53:00,
2013-01-01 03:02:00,41.0,-99.9,30.00,SSE,161,4.0,6.0,-999,-99.99,,,-99.99,,2013-01-01 08:02:00,
2013-01-01 03:12:00,-999.0,-99.9,30.00,SSE,159,5.0,5.0,-999,-99.99,,,-99.99,,2013-01-01 08:12:00,
2013-01-01 03:22:00,-999.0,-99.9,29.99,SSE,147,4.0,4.0,-999,-99.99,,,-99.99,,2013-01-01 08:22:00,
2013-01-01 03:32:00,40.0,-99.9,29.98,SE,142,1.0,2.0,-999,-99.99,,,-99.99,,2013-01-01 08:32:00,
2013-01-01 03:42:00,40.0,-99.9,29.98,North,-999,-999.0,-999.0,-999,-99.99,,,-99.99,,2013-01-01 08:42:00,
2013-01-01 03:53:00,40.0,-99.9,29.98,North,-999,-999.0,-999.0,-999,-99.99,,,-99.99,,2013-01-01 08:53:00,
2013-01-01 04:02:00,39.0,-99.9,29.98,SE,133,2.0,2.0,-999,-99.99,,,-99.99,,2013-01-01 09:02:00,
2013-01-01 04:12:00,-999.0,-99.9,29.98,SE,134,1.0,2.0,-999,-99.99,,,-99.99,,2013-01-01 09:12:00,
2013-01-01 04:22:00,-999.0,-99.9,29.98,SSW,193,1.0,2.0,-999,-99.99,,,-99.99,,2013-01-01 09:22:00,
2013-01-01 04:32:00,40.0,-99.9,29.98,North,353,2.0,3.0,-999,-99.99,,,-99.99,,2013-01-01 09:32:00,
2013-01-01 04:42:00,-999.0,-99.9,29.98,WNW,301,0.0,2.0,-999,-99.99,,,-99.99,,2013-01-01 09:42:00,
2013-01-01 04:53:00,39.0,-99.9,29.97,North,-999,-999.0,-999.0,-999,-99.99,,,-99.99,,2013-01-01 09:53:00,
2013-01-01 05:02:00,40.0,-99.9,29.97,South,186,-999.0,1.0,-999,-99.99,,,-99.99,,2013-01-01 10:02:00,
2013-01-01 05:12:00,40.0,-99.9,-100.00,North,-999,-999.0,-999.0,-999,-99.99,,,-99.99,,2013-01-01 10:12:00,
2013-01-01 05:22:00,39.0,-99.9,29.98,North,-999,-999.0,-999.0,-999,-99.99,,,-99.99,,2013-01-01 10:22:00,
2013-01-01 05:33:00,38.0,-99.9,29.97,SSE,159,2.0,2.0,-999,-99.99,,,-99.99,,2013-01-01 10:33:00,
2013-01-01 05:43:00,39.0,-99.9,29.97,SE,132,-999.0,2.0,-999,-99.99,,,-99.99,,2013-01-01 10:43:00,
2013-01-01 05:53:00,39.0,-99.9,29.98,North,-999,-999.0,-999.0,-999,-99.99,,,-99.99,,2013-01-01 10:53:00,
2013-01-01 06:02:00,39.0,-99.9,29.98,NW,314,1.0,1.0,-999,-99.99,,,-99.99,,2013-01-01 11:02:00,
2013-01-01 06:12:00,39.0,-99.9,29.97,North,-999,-999.0,-999.0,-999,-99.99,,,-99.99,,2013-01-01 11:12:00,
2013-01-01 06:23:00,39.0,-99.9,29.97,North,-999,-999.0,-999.0,-999,-99.99,,,-99.99,,2013-01-01 11:23:00,
2013-01-01 06:33:00,40.0,-99.9,29.97,WNW,286,1.0,2.0,-999,-99.99,,,-99.99,,2013-01-01 11:33:00,
2013-01-01 06:43:00,39.0,-99.9,29.97,North,-999,-999.0,-999.0,-999,-99.99,,,-99.99,,2013-01-01 11:43:00,
2013-01-01 06:53:00,-999.0,-99.9,29.98,NNW,330,2.0,4.0,-999,-99.99,,,-99.99,,2013-01-01 11:53:00,
2013-01-01 07:03:00,39.0,-99.9,29.98,NW,317,2.0,2.0,-999,-99.99,,,-99.99,,2013-01-01 12:03:00,
2013-01-01 07:12:00,-999.0,-99.9,29.97,NNW,328,1.0,3.0,-999,-99.99,,,-99.99,,2013-01-01 12:12:00,
2013-01-01 07:22:00,39.0,-99.9,29.98,North,-999,-999.0,-999.0,-999,-99.99,,,-99.99,,2013-01-01 12:22:00,
2013-01-01 07:33:00,39.0,-99.9,29.99,SSE,164,2.0,3.0,-999,-99.99,,,-99.99,,2013-01-01 12:33:00,
2013-01-01 07:43:00,40.0,-99.9,29.98,SE,125,-999.0,2.0,-999,-99.99,,,-99.99,,2013-01-01 12:43:00,
2013-01-01 07:53:00,40.0,-99.9,29.97,North,-999,-999.0,-999.0,-999,-99.99,,,-99.99,,2013-01-01 12:53:00,
2013-01-01 08:03:00,40.0,-99.9,29.98,North,9,1.0,2.0,-999,-99.99,,,-99.99,,2013-01-01 13:03:00,
2013-01-01 08:12:00,41.0,-99.9,29.98,North,-999,-999.0,-999.0,-999,-99.99,,,-99.99,,2013-01-01 13:12:00,
2013-01-01 08:22:00,40.0,-99.9,29.98,North,-999,-999.0,-999.0,-999,-99.99,,,-99.99,,2013-01-01 13:22:00,
2013-01-01 08:33:00,39.0,-99.9,29.98,SW,218,2.0,3.0,-999,-99.99,,,-99.99,,2013-01-01 13:33:00,
2013-01-01 08:43:00,-999.0,-99.9,29.98,South,184,3.0,4.0,-999,-99.99,,,-99.99,,2013-01-01 13:43:00,
2013-01-01 08:53:00,-999.0,-99.9,29.98,WNW,292,1.0,3.0,-999,-99.99,,,-99.99,,2013-01-01 13:53:00,
2013-01-01 09:03:00,40.0,-99.9,29.98,North,1,2.0,3.0,-999,-99.99,,,-99.99,,2013-01-01 14:03:00,
2013-01-01 09:12:00,40.0,-99.9,29.98,North,-999,-999.0,-999.0,-999,-99.99,,,-99.99,,2013-01-01 14:12:00,
2013-01-01 09:22:00,-999.0,-99.9,29.97,North,349,1.0,1.0,-999,-99.99,,,-99.99,,2013-01-01 14:22:00,
2013-01-01 09:33:00,40.0,-99.9,29.98,SSW,201,1.0,2.0,-999,-99.99,,,-99.99,,2013-01-01 14:33:00,
2013-01-01 09:43:00,40.0,-99.9,29.99,South,183,-999.0,1.0,-999,-99.99,,,-99.99,,2013-01-01 14:43:00,
2013-01-01 09:53:00,-999.0,-99.9,29.99,ESE,108,0.0,2.0,-999,-99.99,,,-99.99,,2013-01-01 14:53:00,
2013-01-01 10:03:00,40.0,-99.9,29.99,SSE,163,2.0,2.0,-999,-99.99,,,-99.99,,2013-01-01 15:03:00,
2013-01-01 10:13:00,40.0,-99.9,29.99,North,-999,-999.0,-999.0,-999,-99.99,,,-99.99,,2013-01-01 15:13:00,
2013-01-01 10:22:00,-999.0,-99.9,29.98,South,175,1.0,2.0,-999,-99.99,,,-99.99,,2013-01-01 15:22:00,
2013-01-01 10:33:00,41.0,-99.9,29.99,WSW,242,2.0,4.0,-999,-99.99,,,-99.99,,2013-01-01 15:33:00,
2013-01-01 10:43:00,41.0,-99.9,29.99,WSW,242,2.0,3.0,-999,-99.99,,,-99.99,,2013-01-01 15:43:00,
2013-01-01 10:53:00,42.0,-99.9,29.99,North,-999,-999.0,-999.0,-999,-99.99,,,-99.99,,2013-01-01 15:53:00,
2013-01-01 11:02:00,42.0,-99.9,29.98,WNW,290,4.0,5.0,-999,-99.99,,,-99.99,,2013-01-01 16:02:00,
2013-01-01 11:12:00,42.0,-99.9,29.99,WNW,289,5.0,6.0,-999,-99.99,,,-99.99,,2013-01-01 16:12:00,
2013-01-01 11:23:00,-999.0,-99.9,29.99,WNW,286,6.0,8.0,-999,-99.99,,,-99.99,,2013-01-01 16:23:00,
2013-01-01 11:33:00,42.0,-99.9,29.98,WNW,292,4.0,7.0,-999,-99.99,,,-99.99,,2013-01-01 16:33:00,
2013-01-01 11:43:00,42.0,-99.9,29.99,NW,309,6.0,7.0,-999,-99.99,,,-99.99,,2013-01-01 16:43:00,
2013-01-01 11:53:00,42.0,-99.9,29.98,North,-999,-999.0,-999.0,-999,-99.99,,,-99.99,,2013-01-01 16:53:00,
2013-01-01 12:03:00,42.0,-99.9,29.97,WNW,283,3.0,6.0,-999,-99.99,,,-99.99,,2013-01-01 17:03:00,
2013-01-01 12:12:00,-999.0,-99.9,29.97,West,267,5.0,6.0,-999,-99.99,,,-99.99,,2013-01-01 17:12:00,
2013-01-01 12:23:00,43.0,-99.9,29.96,North,-999,-999.0,-999.0,-999,-99.99,,,-99.99,,2013-01-01 17:23:00,
2013-01-01 12:33:00,43.0,-99.9,29.96,WNW,291,6.0,6.0,-999,-99.99,,,-99.99,,2013-01-01 17:33:00,
2013-01-01 12:43:00,43.0,-99.9,29.96,North,-999,-999.0,-999.0,-999,-99.99,,,-99.99,,2013-01-01 17:43:00,
2013-01-01 12:53:00,43.0,-99.9,29.95,North,-999,-999.0,-999.0,-999,-99.99,,,-99.99,,2013-01-01 17:53:00,
2013-01-01 13:03:00,43.0,-99.9,29.94,WNW,300,5.0,7.0,-999,-99.99,,,-99.99,,2013-01-01 18:03:00,
2013-01-01 13:13:00,43.0,-99.9,29.93,WNW,290,4.0,7.0,-999,-99.99,,,-99.99,,2013-01-01 18:13:00,
2013-01-01 13:23:00,-999.0,-99.9,29.93,West,268,4.0,8.0,-999,-99.99,,,-99.99,,2013-01-01 18:23:00,
2013-01-01 13:33:00,43.0,-99.9,29.93,WNW,298,4.0,7.0,-999,-99.99,,,-99.99,,2013-01-01 18:33:00,
2013-01-01 13:43:00,43.0,-99.9,29.93,WNW,297,5.0,7.0,-999,-99.99,,,-99.99,,2013-01-01 18:43:00,
2013-01-01 13:53:00,-999.0,-99.9,29.93,NW,312,6.0,7.0,-999,-99.99,,,-99.99,,2013-01-01 18:53:00,
2013-01-01 14:02:00,44.0,-99.9,29.91,NW,314,6.0,9.0,-999,-99.99,,,-99.99,,2013-01-01 19:02:00,
2013-01-01 14:12:00,-999.0,-99.9,29.91,NW,310,4.0,6.0,-999,-99.99,,,-99.99,,2013-01-01 19:12:00,
2013-01-01 14:22:00,44.0,-99.9,29.91,North,-999,-999.0,-999.0,-999,-99.99,,,-99.99,,2013-01-01 19:22:00,
2013-01-01 14:33:00,44.0,-99.9,29.91,NW,311,6.0,8.0,-999,-99.99,,,-99.99,,2013-01-01 19:33:00,
2013-01-01 14:43:00,44.0,-99.9,29.93,NW,309,6.0,9.0,-999,-99.99,,,-99.99,,2013-01-01 19:43:00,
2013-01-01 14:53:00,-999.0,-99.9,29.92,NW,304,5.0,6.0,-999,-99.99,,,-99.99,,2013-01-01 19:53:00,
2013-01-01 15:02:00,44.0,-99.9,29.92,WNW,301,5.0,7.0,-999,-99.99,,,-99.99,,2013-01-01 20:02:00,
2013-01-01 15:13:00,44.0,-99.9,29.92,North,-999,-999.0,-999.0,-999,-99.99,,,-99.99,,2013-01-01 20:13:00,
2013-01-01 15:23:00,-999.0,-99.9,29.92,NW,311,7.0,11.0,-999,-99.99,,,-99.99,,2013-01-01 20:23:00,
2013-01-01 15:33:00,44.0,-99.9,29.92,NW,316,8.0,8.0,-999,-99.99,,,-99.99,,2013-01-01 20:33:00,
2013-01-01 15:43:00,-999.0,-99.9,29.93,NNW,333,4.0,8.0,-999,-99.99,,,-99.99,,2013-01-01 20:43:00,
2013-01-01 15:53:00,-999.0,-99.9,29.94,NNW,327,7.0,9.0,-999,-99.99,,,-99.99,,2013-01-01 20:53:00,
2013-01-01 16:03:00,44.0,-99.9,29.94,NW,320,7.0,10.0,-999,-99.99,,,-99.99,,2013-01-01 21:03:00,
2013-01-01 16:13:00,-999.0,-99.9,29.93,NW,309,6.0,8.0,-999,-99.99,,,-99.99,,2013-01-01 21:13:00,
2013-01-01 16:22:00,44.0,-99.9,29.93,North,-999,-999.0,-999.0,-999,-99.99,,,-99.99,,2013-01-01 21:22:00,
2013-01-01 16:33:00,44.0,-99.9,29.93,WNW,289,4.0,5.0,-999,-99.99,,,-99.99,,2013-01-01 21:33:00,
2013-01-01 16:43:00,44.0,-99.9,29.93,NW,318,5.0,7.0,-999,-99.99,,,-99.99,,2013-01-01 21:43:00,
2013-01-01 16:53:00,44.0,-99.9,29.94,North,-999,-999.0,-999.0,-999,-99.99,,,-99.99,,2013-01-01 21:53:00,
2013-01-01 17:03:00,44.0,-99.9,29.96,WNW,297,4.0,6.0,-999,-99.99,,,-99.99,,2013-01-01 22:03:00,
2013-01-01 17:13:00,-999.0,-99.9,29.96,West,280,3.0,5.0,-999,-99.99,,,-99.99,,2013-01-01 22:13:00,
2013-01-01 17:23:00,-999.0,-99.9,29.95,NW,308,4.0,6.0,-999,-99.99,,,-99.99,,2013-01-01 22:23:00,
2013-01-01 17:33:00,43.0,-99.9,29.95,NW,313,4.0,6.0,-999,-99.99,,,-99.99,,2013-01-01 22:33:00,
2013-01-01 17:43:00,43.0,-99.9,29.95,North,-999,-999.0,-999.0,-999,-99.99,,,-99.99,,2013-01-01 22:43:00,
2013-01-01 17:53:00,-999.0,-99.9,29.95,WNW,299,3.0,6.0,-999,-99.99,,,-99.99,,2013-01-01 22:53:00,
2013-01-01 18:03:00,43.0,-99.9,29.96,NW,305,4.0,5.0,-999,-99.99,,,-99.99,,2013-01-01 23:03:00,
2013-01-01 18:13:00,43.0,-99.9,29.95,North,-999,-999.0,-999.0,-999,-99.99,,,-99.99,,2013-01-01 23:13:00,
2013-01-01 18:22:00,43.0,-99.9,29.96,North,-999,-999.0,-999.0,-999,-99.99,,,-99.99,,2013-01-01 23:22:00,
2013-01-01 18:33:00,44.0,-99.9,29.97,NNW,336,5.0,10.0,-999,-99.99,,,-99.99,,2013-01-01 23:33:00,
2013-01-01 18:42:00,43.0,-99.9,29.97,NW,326,10.0,12.0,-999,-99.99,,,-99.99,,2013-01-01 23:42:00,
2013-01-01 18:53:00,43.0,-99.9,29.97,North,-999,-999.0,-999.0,-999,-99.99,,,-99.99,,2013-01-01 23:53:00,
2013-01-01 19:03:00,44.0,-99.9,29.98,NNW,347,4.0,11.0,-999,-99.99,,,-99.99,,2013-01-02 00:03:00,
2013-01-01 19:12:00,-999.0,-99.9,29.98,NNW,340,5.0,11.0,-999,-99.99,,,-99.99,,2013-01-02 00:12:00,
2013-01-01 19:22:00,-999.0,-99.9,29.97,North,349,4.0,7.0,-999,-99.99,,,-99.99,,2013-01-02 00:22:00,
2013-01-01 19:33:00,43.0,-99.9,29.98,NNW,328,9.0,12.0,-999,-99.99,,,-99.99,,2013-01-02 00:33:00,
2013-01-01 19:43:00,-999.0,-99.9,30.00,NW,322,10.0,14.0,-999,-99.99,,,-99.99,,2013-01-02 00:43:00,
2013-01-01 19:53:00,43.0,-99.9,29.99,North,-999,-999.0,-999.0,-999,-99.99,,,-99.99,,2013-01-02 00:53:00,
2013-01-01 20:02:00,43.0,-99.9,29.99,North,360,6.0,14.0,-999,-99.99,,,-99.99,,2013-01-02 01:02:00,
2013-01-01 20:12:00,-999.0,-99.9,29.99,North,356,8.0,11.0,-999,-99.99,,,-99.99,,2013-01-02 01:12:00,
2013-01-01 20:22:00,-999.0,-99.9,29.98,NNW,348,8.0,10.0,-999,-99.99,,,-99.99,,2013-01-02 01:22:00,
2013-01-01 20:33:00,42.0,-99.9,29.98,North,353,7.0,14.0,-999,-99.99,,,-99.99,,2013-01-02 01:33:00,
2013-01-01 20:42:00,42.0,-99.9,29.97,North,351,9.0,13.0,-999,-99.99,,,-99.99,,2013-01-02 01:42:00,
2013-01-01 20:53:00,-999.0,-99.9,29.98,NNW,346,4.0,8.0,-999,-99.99,,,-99.99,,2013-01-02 01:53:00,
2013-01-01 21:02:00,42.0,-99.9,29.98,NNW,328,11.0,16.0,-999,-99.99,,,-99.99,,2013-01-02 02:02:00,
2013-01-01 21:12:00,42.0,-99.9,29.99,North,-999,-999.0,-999.0,-999,-99.99,,,-99.99,,2013-01-02 02:12:00,
2013-01-01 21:22:00,-999.0,-99.9,29.99,North,352,8.0,12.0,-999,-99.99,,,-99.99,,2013-01-02 02:22:00,
2013-01-01 21:33:00,42.0,-99.9,29.99,North,350,6.0,13.0,-999,-99.99,,,-99.99,,2013-01-02 02:33:00,
2013-01-01 21:43:00,-999.0,-99.9,29.99,North,351,8.0,12.0,-999,-99.99,,,-99.99,,2013-01-02 02:43:00,
2013-01-01 21:53:00,-999.0,-99.9,30.00,NNW,337,6.0,12.0,-999,-99.99,,,-99.99,,2013-01-02 02:53:00,
2013-01-01 22:02:00,42.0,-99.9,30.00,NNW,336,8.0,13.0,-999,-99.99,,,-99.99,,2013-01-02 03:02:00,
2013-01-01 22:12:00,42.0,-99.9,30.00,North,-999,-999.0,-999.0,-999,-99.99,,,-99.99,,2013-01-02 03:12:00,
2013-01-01 22:22:00,-999.0,-99.9,30.00,NNW,348,4.0,11.0,-999,-99.99,,,-99.99,,2013-01-02 03:22:00,
2013-01-01 22:32:00,41.0,-99.9,30.01,NW,326,7.0,9.0,-999,-99.99,,,-99.99,,2013-01-02 03:32:00,
2013-01-01 22:42:00,-999.0,-99.9,30.00,North,1,4.0,11.0,-999,-99.99,,,-99.99,,2013-01-02 03:42:00,
2013-01-01 22:53:00,41.0,-99.9,30.02,North,-999,-999.0,-999.0,-999,-99.99,,,-99.99,,2013-01-02 03:53:00,
2013-01-01 23:03:00,41.0,-99.9,30.01,NNW,348,4.0,10.0,-999,-99.99,,,-99.99,,2013-01-02 04:03:00,
2013-01-01 23:12:00,41.0,-99.9,30.02,North,-999,-999.0,-999.0,-999,-99.99,,,-99.99,,2013-01-02 04:12:00,
2013-01-01 23:22:00,-999.0,-99.9,30.01,NNW,342,4.0,8.0,-999,-99.99,,,-99.99,,2013-01-02 04:22:00,
2013-01-01 23:33:00,41.0,-99.9,30.01,NNW,346,5.0,12.0,-999,-99.99,,,-99.99,,2013-01-02 04:33:00,
2013-01-01 23:42:00,-999.0,-99.9,30.00,NNE,12,3.0,7.0,-999,-99.99,,,-99.99,,2013-01-02 04:42:00,
2013-01-01 23:53:00,41.0,-99.9,30.01,North,-999,-999.0,-999.0,-999,-99.99,,,-99.99,,2013-01-02 04:53:00,